Time,TemperatureF,DewpointF,PressureIn,WindDirection,WindDirectionDegrees,WindSpeedMPH,WindSpeedGustMPH,Humidity,HourlyPrecipIn,Conditions,Clouds,dailyrainin,SoftwareType,DateUTC
2013-03-16 00:00:00,19.6,7.6,29.75,NW,319,0.0,0.0,59,0.00,,OVC065,0.00,VWS V14.01,2013-03-16 04:00:00,
2013-03-16 00:01:00,19.6,7.6,29.75,NW,323,0.0,0.0,59,0.00,,OVC065,0.00,VWS V14.01,2013-03-16 04:01:00,
2013-03-16 00:06:00,19.6,7.6,29.75,NW,305,0.0,0.0,59,0.00,,OVC065,0.00,VWS V14.01,2013-03-16 04:06:00,
2013-03-16 00:11:00,19.6,8.0,29.75,North,357,3.1,3.1,60,0.00,,OVC065,0.00,VWS V14.01,2013-03-16 04:11:00,
2013-03-16 00:16:00,19.6,8.0,29.75,NW,305,0.0,0.0,60,0.00,,OVC065,0.00,VWS V14.01,2013-03-16 04:16:00,
2013-03-16 00:21:00,19.6,8.3,29.75,NW,326,0.0,0.0,61,0.00,,OVC065,0.00,VWS V14.01,2013-03-16 04:21:00,
2013-03-16 00:26:00,19.6,8.3,29.78,SW,236,4.0,4.0,61,0.00,,OVC065,0.00,VWS V14.01,2013-03-16 04:26:00,
2013-03-16 00:31:00,19.6,8.7,29.78,SW,220,0.0,0.0,62,0.00,,OVC065,0.00,VWS V14.01,2013-03-16 04:31:00,
2013-03-16 00:36:00,19.6,8.7,29.78,NW,325,0.0,0.0,62,0.00,,OVC065,0.00,VWS V14.01,2013-03-16 04:36:00,
2013-03-16 00:41:00,19.4,8.5,29.78,WSW,245,3.1,3.1,62,0.00,,,0.00,VWS V14.01,2013-03-16 04:41:00,
2013-03-16 00:46:00,19.4,8.5,29.78,SW,235,0.0,0.0,62,0.00,,,0.00,VWS V14.01,2013-03-16 04:46:00,
2013-03-16 00:51:00,19.6,9.1,29.78,NW,315,2.2,2.2,63,0.00,,,0.00,VWS V14.01,2013-03-16 04:51:00,
2013-03-16 00:56:00,19.4,8.9,29.78,North,357,2.7,2.7,63,0.00,,,0.00,VWS V14.01,2013-03-16 04:56:00,
2013-03-16 01:02:00,19.4,8.9,29.78,NW,318,0.0,0.0,63,0.00,,,0.00,VWS V14.01,2013-03-16 05:02:00,
2013-03-16 01:07:00,19.2,8.7,29.78,SW,224,0.0,0.0,63,0.00,,,0.00,VWS V14.01,2013-03-16 05:07:00,
2013-03-16 01:12:00,19.2,8.7,29.78,WSW,241,2.7,2.7,63,0.00,,,0.00,VWS V14.01,2013-03-16 05:12:00,
2013-03-16 01:17:00,18.7,8.2,29.78,SW,233,2.7,2.7,63,0.00,,,0.00,VWS V14.01,2013-03-16 05:17:00,
2013-03-16 01:22:00,18.5,8.4,29.78,SW,233,3.1,5.4,64,0.00,,,0.00,VWS V14.01,2013-03-16 05:22:00,
2013-03-16 01:27:00,18.5,8.4,29.78,WSW,240,0.0,0.0,64,0.00,,,0.00,VWS V14.01,2013-03-16 05:27:00,
2013-03-16 01:32:00,18.3,8.2,29.78,North,353,0.0,0.0,64,0.00,,,0.00,VWS V14.01,2013-03-16 05:32:00,
2013-03-16 01:37:00,18.1,8.0,29.78,South,189,0.0,0.0,64,0.00,,,0.00,VWS V14.01,2013-03-16 05:37:00,
2013-03-16 01:42:00,18.0,8.2,29.78,NE,49,0.0,0.0,65,0.00,,,0.00,VWS V14.01,2013-03-16 05:42:00,
2013-03-16 01:47:00,18.0,8.2,29.78,NNW,340,0.0,0.0,65,0.00,,,0.00,VWS V14.01,2013-03-16 05:47:00,
2013-03-16 01:52:00,17.8,8.4,29.78,North,353,0.0,0.0,66,0.00,,,0.00,VWS V14.01,2013-03-16 05:52:00,
2013-03-16 01:57:00,17.6,8.2,29.78,North,1,0.0,0.0,66,0.00,,,0.00,VWS V14.01,2013-03-16 05:57:00,
2013-03-16 02:02:00,17.6,8.5,29.78,WNW,285,0.0,0.0,67,0.00,,,0.00,VWS V14.01,2013-03-16 06:02:00,
2013-03-16 02:07:00,17.2,8.2,29.78,South,187,0.0,0.0,67,0.00,,,0.00,VWS V14.01,2013-03-16 06:07:00,
2013-03-16 02:12:00,17.1,8.0,29.78,South,187,0.0,0.0,67,0.00,,,0.00,VWS V14.01,2013-03-16 06:12:00,
2013-03-16 02:17:00,17.1,8.0,29.78,NNW,329,2.7,2.7,67,0.00,,,0.00,VWS V14.01,2013-03-16 06:17:00,
2013-03-16 02:22:00,17.1,8.3,29.81,WSW,237,0.0,0.0,68,0.00,,,0.00,VWS V14.01,2013-03-16 06:22:00,
2013-03-16 02:27:00,17.4,8.7,29.81,WSW,237,0.0,0.0,68,0.00,,,0.00,VWS V14.01,2013-03-16 06:27:00,
2013-03-16 02:32:00,17.4,9.0,29.81,WSW,245,0.0,0.0,69,0.00,,,0.00,VWS V14.01,2013-03-16 06:32:00,
2013-03-16 02:37:00,17.4,9.0,29.81,NW,320,0.0,0.0,69,0.00,,,0.00,VWS V14.01,2013-03-16 06:37:00,
2013-03-16 02:42:00,17.4,9.0,29.81,SW,233,3.1,3.1,69,0.00,,,0.00,VWS V14.01,2013-03-16 06:42:00,
2013-03-16 02:47:00,17.4,9.0,29.81,NNW,334,0.0,3.1,69,0.00,,,0.00,VWS V14.01,2013-03-16 06:47:00,
2013-03-16 02:52:00,17.4,9.3,29.81,NNW,332,3.6,3.6,70,0.00,,,0.00,VWS V14.01,2013-03-16 06:52:00,
2013-03-16 02:57:00,17.4,9.3,29.81,NW,317,4.0,4.0,70,0.00,,,0.00,VWS V14.01,2013-03-16 06:57:00,
2013-03-16 03:02:00,17.4,9.3,29.81,East,95,5.8,5.8,70,0.00,,,0.00,VWS V14.01,2013-03-16 07:02:00,
2013-03-16 03:07:00,17.2,9.1,29.81,North,2,2.2,2.7,70,0.00,,,0.00,VWS V14.01,2013-03-16 07:07:00,
2013-03-16 03:12:00,17.2,9.1,29.81,NW,324,0.0,0.0,70,0.00,,,0.00,VWS V14.01,2013-03-16 07:12:00,
2013-03-16 03:17:00,17.1,9.0,29.81,NW,317,2.2,2.2,70,0.00,,,0.00,VWS V14.01,2013-03-16 07:17:00,
2013-03-16 03:22:00,17.1,9.0,29.81,NW,305,3.1,3.1,70,0.00,,,0.00,VWS V14.01,2013-03-16 07:22:00,
2013-03-16 03:27:00,16.9,8.8,29.81,NNW,331,3.1,3.1,70,0.00,,,0.00,VWS V14.01,2013-03-16 07:27:00,
2013-03-16 03:32:00,16.7,8.6,29.81,North,357,0.0,0.0,70,0.00,,,0.00,VWS V14.01,2013-03-16 07:32:00,
2013-03-16 03:37:00,16.7,8.6,29.81,West,259,0.0,0.0,70,0.00,,,0.00,VWS V14.01,2013-03-16 07:37:00,
2013-03-16 03:42:00,16.5,8.5,29.81,North,353,0.0,0.0,70,0.00,,,0.00,VWS V14.01,2013-03-16 07:42:00,
2013-03-16 03:47:00,16.5,8.5,29.81,North,350,0.0,0.0,70,0.00,,,0.00,VWS V14.01,2013-03-16 07:47:00,
2013-03-16 03:52:00,16.5,8.5,29.81,WSW,238,0.0,0.0,70,0.00,,,0.00,VWS V14.01,2013-03-16 07:52:00,
2013-03-16 03:58:00,16.3,8.6,29.81,NNW,331,0.0,0.0,71,0.00,,,0.00,VWS V14.01,2013-03-16 07:58:00,
2013-03-16 04:02:00,16.2,8.4,29.81,North,4,0.0,0.0,71,0.00,,,0.00,VWS V14.01,2013-03-16 08:02:00,
2013-03-16 04:07:00,16.0,8.2,29.81,North,357,3.6,3.6,71,0.00,,,0.00,VWS V14.01,2013-03-16 08:07:00,
2013-03-16 04:13:00,16.0,8.2,29.81,SW,234,4.0,4.0,71,0.00,,,0.00,VWS V14.01,2013-03-16 08:13:00,
2013-03-16 04:18:00,15.8,8.4,29.81,WNW,287,2.7,2.7,72,0.00,,,0.00,VWS V14.01,2013-03-16 08:18:00,
2013-03-16 04:23:00,15.8,8.4,29.81,SW,216,0.0,0.0,72,0.00,,,0.00,VWS V14.01,2013-03-16 08:23:00,
2013-03-16 04:28:00,15.6,8.2,29.81,NW,308,0.0,0.0,72,0.00,,,0.00,VWS V14.01,2013-03-16 08:28:00,
2013-03-16 04:33:00,15.4,8.0,29.81,SW,221,0.0,0.0,72,0.00,,,0.00,VWS V14.01,2013-03-16 08:33:00,
2013-03-16 04:38:00,15.4,8.0,29.81,South,178,0.0,0.0,72,0.00,,,0.00,VWS V14.01,2013-03-16 08:38:00,
2013-03-16 04:43:00,15.4,8.0,29.81,SW,228,0.0,0.0,72,0.00,,,0.00,VWS V14.01,2013-03-16 08:43:00,
2013-03-16 04:48:00,15.3,7.9,29.81,NW,305,0.0,0.0,72,0.00,,,0.00,VWS V14.01,2013-03-16 08:48:00,
2013-03-16 04:53:00,15.1,7.7,29.81,NW,305,0.0,0.0,72,0.00,,,0.00,VWS V14.01,2013-03-16 08:53:00,
2013-03-16 04:58:00,14.9,7.5,29.81,North,357,0.0,0.0,72,0.00,,,0.00,VWS V14.01,2013-03-16 08:58:00,
2013-03-16 05:03:00,14.7,7.3,29.81,NW,325,0.0,0.0,72,0.00,,,0.00,VWS V14.01,2013-03-16 09:03:00,
2013-03-16 05:08:00,14.4,7.0,29.81,NW,325,0.0,0.0,72,0.00,,,0.00,VWS V14.01,2013-03-16 09:08:00,
2013-03-16 05:13:00,14.0,6.7,29.81,NW,325,0.0,0.0,72,0.00,,,0.00,VWS V14.01,2013-03-16 09:13:00,
2013-03-16 05:18:00,13.8,6.5,29.81,NNW,337,0.0,0.0,72,0.00,,,0.00,VWS V14.01,2013-03-16 09:18:00,
2013-03-16 05:23:00,13.6,6.3,29.81,NNW,338,0.0,0.0,72,0.00,,,0.00,VWS V14.01,2013-03-16 09:23:00,
2013-03-16 05:28:00,13.5,6.1,29.81,NNW,338,0.0,0.0,72,0.00,,,0.00,VWS V14.01,2013-03-16 09:28:00,
2013-03-16 05:33:00,13.5,6.1,29.81,NNW,338,0.0,0.0,72,0.00,,,0.00,VWS V14.01,2013-03-16 09:33:00,
2013-03-16 05:38:00,12.7,5.4,29.81,NNW,338,0.0,0.0,72,0.00,,,0.00,VWS V14.01,2013-03-16 09:38:00,
2013-03-16 05:43:00,12.0,4.7,29.81,NNW,338,0.0,0.0,72,0.00,,,0.00,VWS V14.01,2013-03-16 09:43:00,
2013-03-16 05:48:00,12.0,4.7,29.81,NNW,338,0.0,0.0,72,0.00,,,0.00,VWS V14.01,2013-03-16 09:48:00,
2013-03-16 05:53:00,11.1,3.9,29.81,NNW,338,0.0,0.0,72,0.00,,,0.00,VWS V14.01,2013-03-16 09:53:00,
2013-03-16 05:58:00,11.1,3.9,29.81,NNW,338,0.0,0.0,72,0.00,,,0.00,VWS V14.01,2013-03-16 09:58:00,
2013-03-16 06:03:00,11.1,3.9,29.81,NNW,338,0.0,0.0,72,0.00,,,0.00,VWS V14.01,2013-03-16 10:03:00,
2013-03-16 06:08:00,11.1,3.9,29.81,NNW,338,0.0,0.0,72,0.00,,,0.00,VWS V14.01,2013-03-16 10:08:00,
2013-03-16 06:13:00,9.7,2.5,29.81,NNW,338,0.0,0.0,72,0.00,,,0.00,VWS V14.01,2013-03-16 10:13:00,
2013-03-16 06:18:00,9.0,1.8,29.81,NNW,338,0.0,0.0,72,0.00,,,0.00,VWS V14.01,2013-03-16 10:18:00,
2013-03-16 06:23:00,9.0,1.8,29.81,NNW,338,0.0,0.0,72,0.00,,,0.00,VWS V14.01,2013-03-16 10:23:00,
2013-03-16 06:28:00,8.1,0.9,29.81,NNW,338,0.0,0.0,72,0.00,,,0.00,VWS V14.01,2013-03-16 10:28:00,
2013-03-16 06:33:00,8.1,0.9,29.81,NNW,338,0.0,0.0,72,0.00,,,0.00,VWS V14.01,2013-03-16 10:33:00,
2013-03-16 06:38:00,7.7,0.6,29.81,NNW,338,0.0,0.0,72,0.00,,,0.00,VWS V14.01,2013-03-16 10:38:00,
2013-03-16 06:43:00,7.3,0.2,29.81,NNW,338,0.0,0.0,72,0.00,,,0.00,VWS V14.01,2013-03-16 10:43:00,
2013-03-16 06:48:00,7.3,0.2,29.81,NNW,338,0.0,0.0,72,0.00,,,0.00,VWS V14.01,2013-03-16 10:48:00,
2013-03-16 06:53:00,7.0,-0.1,29.81,NNW,338,0.0,0.0,72,0.00,,,0.00,VWS V14.01,2013-03-16 10:53:00,
2013-03-16 06:58:00,7.0,-0.1,29.81,NNW,338,0.0,0.0,72,0.00,,,0.00,VWS V14.01,2013-03-16 10:58:00,
2013-03-16 07:03:00,6.4,-0.6,29.81,NNW,338,0.0,0.0,72,0.00,,,0.00,VWS V14.01,2013-03-16 11:03:00,
2013-03-16 07:08:00,6.3,-0.8,29.81,NNW,338,0.0,0.0,72,0.00,,,0.00,VWS V14.01,2013-03-16 11:08:00,
2013-03-16 07:13:00,6.1,-1.0,29.81,NNW,338,0.0,0.0,72,0.00,,,0.00,VWS V14.01,2013-03-16 11:13:00,
2013-03-16 07:18:00,5.9,-1.2,29.81,NNW,338,0.0,0.0,72,0.00,,,0.00,VWS V14.01,2013-03-16 11:18:00,
2013-03-16 07:23:00,5.9,-1.2,29.81,NNW,338,0.0,0.0,72,0.00,,,0.00,VWS V14.01,2013-03-16 11:23:00,
2013-03-16 07:28:00,5.5,-1.5,29.81,NNW,338,0.0,0.0,72,0.00,,,0.00,VWS V14.01,2013-03-16 11:28:00,
2013-03-16 07:33:00,5.5,-1.5,29.81,NNW,338,0.0,0.0,72,0.00,,,0.00,VWS V14.01,2013-03-16 11:33:00,
2013-03-16 07:38:00,5.2,-1.9,29.81,NNW,338,0.0,0.0,72,0.00,,,0.00,VWS V14.01,2013-03-16 11:38:00,
2013-03-16 07:43:00,5.0,-2.0,29.81,NNW,338,0.0,0.0,72,0.00,,,0.00,VWS V14.01,2013-03-16 11:43:00,
2013-03-16 07:48:00,5.0,-2.0,29.84,NNW,338,0.0,0.0,72,0.00,,,0.00,VWS V14.01,2013-03-16 11:48:00,
2013-03-16 07:53:00,5.0,-2.0,29.84,NNW,338,0.0,0.0,72,0.00,,,0.00,VWS V14.01,2013-03-16 11:53:00,
2013-03-16 07:58:00,5.0,-2.0,29.84,NNW,338,0.0,0.0,72,0.00,,,0.00,VWS V14.01,2013-03-16 11:58:00,
2013-03-16 08:03:00,5.2,-1.9,29.84,NNW,338,0.0,0.0,72,0.00,,,0.00,VWS V14.01,2013-03-16 12:03:00,
2013-03-16 08:08:00,5.2,-1.9,29.84,NNW,338,0.0,0.0,72,0.00,,,0.00,VWS V14.01,2013-03-16 12:08:00,
2013-03-16 08:13:00,5.9,-1.2,29.84,NNW,338,0.0,0.0,72,0.00,,,0.00,VWS V14.01,2013-03-16 12:13:00,
2013-03-16 08:18:00,7.0,-0.1,29.84,NNW,338,0.0,0.0,72,0.00,,,0.00,VWS V14.01,2013-03-16 12:18:00,
2013-03-16 08:23:00,7.0,-0.1,29.84,NNW,338,0.0,0.0,72,0.00,,,0.00,VWS V14.01,2013-03-16 12:23:00,
2013-03-16 08:28:00,7.7,0.6,29.84,NNW,338,0.0,0.0,72,0.00,,,0.00,VWS V14.01,2013-03-16 12:28:00,
2013-03-16 08:33:00,7.7,0.6,29.84,NNW,338,0.0,0.0,72,0.00,,,0.00,VWS V14.01,2013-03-16 12:33:00,
2013-03-16 08:38:00,9.1,2.0,29.84,NNW,338,0.0,0.0,72,0.00,,,0.00,VWS V14.01,2013-03-16 12:38:00,
2013-03-16 08:43:00,10.2,3.0,29.84,NNW,338,0.0,0.0,72,0.00,,,0.00,VWS V14.01,2013-03-16 12:43:00,
2013-03-16 08:48:00,10.2,3.0,29.84,NNW,338,0.0,0.0,72,0.00,,,0.00,VWS V14.01,2013-03-16 12:48:00,
2013-03-16 08:53:00,10.2,3.0,29.84,NNW,338,0.0,0.0,72,0.00,,,0.00,VWS V14.01,2013-03-16 12:53:00,
2013-03-16 08:58:00,11.8,4.6,29.84,NNW,338,0.0,0.0,72,0.00,,,0.00,VWS V14.01,2013-03-16 12:58:00,
2013-03-16 09:03:00,12.2,4.9,29.84,NNW,338,0.0,0.0,72,0.00,,,0.00,VWS V14.01,2013-03-16 13:03:00,
2013-03-16 09:08:00,12.2,4.9,29.84,NNW,338,0.0,0.0,72,0.00,,,0.00,VWS V14.01,2013-03-16 13:08:00,
2013-03-16 09:13:00,12.9,5.6,29.84,NNW,338,0.0,0.0,72,0.00,,,0.00,VWS V14.01,2013-03-16 13:13:00,
2013-03-16 09:18:00,13.6,6.3,29.84,NNW,338,0.0,0.0,72,0.00,,,0.00,VWS V14.01,2013-03-16 13:18:00,
2013-03-16 09:23:00,14.4,8.5,29.84,NNW,338,0.0,0.0,77,0.00,,,0.00,VWS V14.01,2013-03-16 13:23:00,
2013-03-16 09:28:00,15.3,9.4,29.84,NNW,338,0.0,0.0,77,0.00,,,0.00,VWS V14.01,2013-03-16 13:28:00,
2013-03-16 09:33:00,15.3,9.4,29.84,NNW,338,0.0,0.0,77,0.00,,,0.00,VWS V14.01,2013-03-16 13:33:00,
2013-03-16 09:38:00,16.2,10.2,29.84,NNW,338,0.0,0.0,77,0.00,,,0.00,VWS V14.01,2013-03-16 13:38:00,
2013-03-16 09:43:00,16.2,10.2,29.84,NNW,338,0.0,0.0,77,0.00,,BKN014,0.00,VWS V14.01,2013-03-16 13:43:00,
2013-03-16 09:59:00,16.2,9.0,29.81,SSE,168,0.0,0.0,73,0.00,,BKN014,0.00,VWS V14.01,2013-03-16 13:59:00,
2013-03-16 10:04:00,16.9,9.7,29.81,SSW,213,0.0,0.0,73,0.00,,BKN014,0.00,VWS V14.01,2013-03-16 14:04:00,
2013-03-16 10:09:00,17.6,10.4,29.81,South,170,0.0,0.0,73,0.00,,BKN014,0.00,VWS V14.01,2013-03-16 14:09:00,
2013-03-16 10:14:00,18.1,11.0,29.81,South,172,3.6,3.6,73,0.00,,BKN014,0.00,VWS V14.01,2013-03-16 14:14:00,
2013-03-16 10:19:00,18.1,11.0,29.81,East,96,0.0,0.0,73,0.00,,BKN014,0.00,VWS V14.01,2013-03-16 14:19:00,
2013-03-16 10:24:00,17.6,10.1,29.81,SSE,167,0.0,0.0,72,0.00,,BKN014,0.00,VWS V14.01,2013-03-16 14:24:00,
2013-03-16 10:29:00,17.8,10.0,29.81,South,177,2.7,2.7,71,0.00,,BKN014,0.00,VWS V14.01,2013-03-16 14:29:00,
2013-03-16 10:34:00,18.0,9.8,29.81,SSE,167,0.0,0.0,70,0.00,,BKN014,0.00,VWS V14.01,2013-03-16 14:34:00,
2013-03-16 10:39:00,19.0,10.6,29.81,SSE,153,0.0,0.0,69,0.00,,BKN014,0.00,VWS V14.01,2013-03-16 14:39:00,
2013-03-16 10:44:00,19.9,11.4,29.81,South,169,2.2,2.7,69,0.00,,BKN016,0.00,VWS V14.01,2013-03-16 14:44:00,
2013-03-16 10:49:00,20.8,12.3,29.81,South,172,0.0,0.0,69,0.00,,BKN016,0.00,VWS V14.01,2013-03-16 14:49:00,
2013-03-16 10:54:00,21.2,12.3,29.81,South,174,4.0,4.0,68,0.00,,BKN016,0.00,VWS V14.01,2013-03-16 14:54:00,
2013-03-16 10:59:00,21.0,11.5,29.81,SSE,167,2.2,2.7,66,0.00,,BKN016,0.00,VWS V14.01,2013-03-16 14:59:00,
2013-03-16 11:04:00,21.2,11.3,29.81,South,177,0.0,0.0,65,0.00,,BKN016,0.00,VWS V14.01,2013-03-16 15:04:00,
2013-03-16 11:09:00,21.2,10.9,29.81,SSE,148,0.0,0.0,64,0.00,,BKN016,0.00,VWS V14.01,2013-03-16 15:09:00,
2013-03-16 11:14:00,20.7,10.1,29.81,SSE,149,0.0,0.0,63,0.00,,BKN016,0.00,VWS V14.01,2013-03-16 15:14:00,
2013-03-16 11:19:00,20.5,9.2,29.81,North,11,3.6,4.0,61,0.00,,BKN016,0.00,VWS V14.01,2013-03-16 15:19:00,
2013-03-16 11:24:00,20.1,6.6,29.81,NE,39,4.0,4.0,55,0.00,,BKN016,0.00,VWS V14.01,2013-03-16 15:24:00,
2013-03-16 11:29:00,20.5,6.1,29.81,South,176,2.7,3.6,53,0.00,,BKN016,0.00,VWS V14.01,2013-03-16 15:29:00,
2013-03-16 11:34:00,22.1,8.0,29.81,SSE,166,5.4,5.8,54,0.00,,BKN016,0.00,VWS V14.01,2013-03-16 15:34:00,
2013-03-16 11:39:00,23.5,8.9,29.81,SE,140,4.9,4.9,53,0.00,,BKN016,0.00,VWS V14.01,2013-03-16 15:39:00,
2013-03-16 11:45:00,24.8,10.5,29.81,SE,134,0.0,2.7,54,0.00,,OVC024,0.00,VWS V14.01,2013-03-16 15:45:00,
2013-03-16 11:50:00,25.7,10.9,29.81,South,182,2.7,4.9,53,0.00,,OVC024,0.00,VWS V14.01,2013-03-16 15:50:00,
2013-03-16 11:55:00,26.4,11.6,29.81,SSE,154,5.8,7.2,53,0.00,,OVC024,0.00,VWS V14.01,2013-03-16 15:55:00,
2013-03-16 12:00:00,27.9,12.5,29.81,SE,136,0.0,0.0,52,0.00,,OVC024,0.00,VWS V14.01,2013-03-16 16:00:00,
2013-03-16 12:05:00,27.0,9.9,29.81,SSE,167,4.9,4.9,48,0.00,,OVC024,0.00,VWS V14.01,2013-03-16 16:05:00,
2013-03-16 12:10:00,26.1,8.6,29.81,SSE,160,0.0,0.0,47,0.00,,OVC024,0.00,VWS V14.01,2013-03-16 16:10:00,
2013-03-16 12:15:00,25.9,8.0,29.81,South,173,3.1,3.1,46,0.00,,OVC024,0.00,VWS V14.01,2013-03-16 16:15:00,
2013-03-16 12:20:00,24.8,6.5,29.81,East,99,0.0,0.0,45,0.00,,OVC024,0.00,VWS V14.01,2013-03-16 16:20:00,
2013-03-16 12:25:00,23.7,5.0,29.81,East,89,0.0,0.0,44,0.00,,OVC024,0.00,VWS V14.01,2013-03-16 16:25:00,
2013-03-16 12:30:00,23.4,4.7,29.81,SE,135,0.0,0.0,44,0.00,,OVC024,0.00,VWS V14.01,2013-03-16 16:30:00,
2013-03-16 12:35:00,23.7,5.5,29.81,SE,126,0.0,0.0,45,0.00,,OVC024,0.00,VWS V14.01,2013-03-16 16:35:00,
2013-03-16 12:40:00,24.3,6.0,29.81,South,176,3.1,4.0,45,0.00,,OVC024,0.00,VWS V14.01,2013-03-16 16:40:00,
2013-03-16 12:45:00,24.4,6.2,29.81,South,177,2.7,4.0,45,0.00,,,0.00,VWS V14.01,2013-03-16 16:45:00,
2013-03-16 12:50:00,23.9,5.2,29.81,SSE,167,4.0,4.0,44,0.00,,,0.00,VWS V14.01,2013-03-16 16:50:00,
2013-03-16 12:55:00,23.9,5.2,29.81,SW,224,0.0,0.0,44,0.00,,,0.00,VWS V14.01,2013-03-16 16:55:00,
2013-03-16 13:00:00,25.0,6.2,29.81,SSW,213,0.0,0.0,44,0.00,,,0.00,VWS V14.01,2013-03-16 17:00:00,
2013-03-16 13:05:00,25.9,7.0,29.81,SSE,168,7.6,7.6,44,0.00,,,0.00,VWS V14.01,2013-03-16 17:05:00,
2013-03-16 13:10:00,25.7,6.8,29.81,NW,310,0.0,0.0,44,0.00,,,0.00,VWS V14.01,2013-03-16 17:10:00,
2013-03-16 13:15:00,25.2,5.8,29.81,South,172,4.0,5.4,43,0.00,,,0.00,VWS V14.01,2013-03-16 17:15:00,
2013-03-16 13:20:00,24.6,5.3,29.81,SW,227,0.0,0.0,43,0.00,,,0.00,VWS V14.01,2013-03-16 17:20:00,
2013-03-16 13:25:00,24.8,5.5,29.81,SW,236,3.1,4.0,43,0.00,,,0.00,VWS V14.01,2013-03-16 17:25:00,
2013-03-16 13:30:00,25.0,5.7,29.81,SSW,207,0.0,2.2,43,0.00,,,0.00,VWS V14.01,2013-03-16 17:30:00,
2013-03-16 13:35:00,25.3,6.0,29.81,South,188,3.6,3.6,43,0.00,,,0.00,VWS V14.01,2013-03-16 17:35:00,
2013-03-16 13:40:00,25.9,6.5,29.81,WSW,247,0.0,0.0,43,0.00,,,0.00,VWS V14.01,2013-03-16 17:40:00,
2013-03-16 13:45:00,25.7,6.3,29.81,SSE,148,0.0,2.7,43,0.00,,OVC024,0.00,VWS V14.01,2013-03-16 17:45:00,
2013-03-16 13:50:00,25.5,6.2,29.81,South,172,2.7,3.1,43,0.00,,OVC024,0.00,VWS V14.01,2013-03-16 17:50:00,
2013-03-16 13:55:00,25.2,5.3,29.81,NW,326,0.0,3.1,42,0.00,,OVC024,0.00,VWS V14.01,2013-03-16 17:55:00,
2013-03-16 14:00:00,24.8,5.5,29.78,SSE,147,0.0,0.0,43,0.00,,OVC024,0.00,VWS V14.01,2013-03-16 18:00:00,
2013-03-16 14:05:00,24.8,5.5,29.78,SE,145,0.0,0.0,43,0.00,,OVC024,0.00,VWS V14.01,2013-03-16 18:05:00,
2013-03-16 14:10:00,25.3,5.5,29.78,SSE,164,4.0,6.3,42,0.00,,OVC024,0.00,VWS V14.01,2013-03-16 18:10:00,
2013-03-16 14:15:00,25.5,5.6,29.78,SW,223,2.2,3.6,42,0.00,,OVC024,0.00,VWS V14.01,2013-03-16 18:15:00,
2013-03-16 14:20:00,25.2,5.3,29.78,SSW,213,4.0,4.0,42,0.00,,OVC024,0.00,VWS V14.01,2013-03-16 18:20:00,
2013-03-16 14:25:00,25.5,5.6,29.78,SSW,195,2.7,3.6,42,0.00,,OVC024,0.00,VWS V14.01,2013-03-16 18:25:00,
2013-03-16 14:30:00,27.0,6.4,29.78,SE,142,3.6,3.6,41,0.00,,OVC024,0.00,VWS V14.01,2013-03-16 18:30:00,
2013-03-16 14:35:00,27.3,6.7,29.78,WSW,241,3.6,4.9,41,0.00,,OVC024,0.00,VWS V14.01,2013-03-16 18:35:00,
2013-03-16 14:41:00,27.5,6.9,29.78,SSE,162,4.5,4.5,41,0.00,,OVC090,0.00,VWS V14.01,2013-03-16 18:41:00,
2013-03-16 14:46:00,28.0,7.4,29.78,South,176,4.5,5.4,41,0.00,,OVC090,0.00,VWS V14.01,2013-03-16 18:46:00,
2013-03-16 14:51:00,27.7,7.1,29.78,SSE,151,3.1,5.8,41,0.00,,OVC090,0.00,VWS V14.01,2013-03-16 18:51:00,
2013-03-16 14:56:00,26.4,5.4,29.78,SSW,195,3.1,3.1,40,0.00,,OVC090,0.00,VWS V14.01,2013-03-16 18:56:00,
2013-03-16 15:01:00,26.6,6.1,29.78,SSE,157,2.7,2.7,41,0.00,,OVC090,0.00,VWS V14.01,2013-03-16 19:01:00,
2013-03-16 15:06:00,26.8,5.7,29.78,NNW,340,4.0,4.0,40,0.00,,OVC090,0.00,VWS V14.01,2013-03-16 19:06:00,
2013-03-16 15:11:00,26.6,5.0,29.78,NNE,29,0.0,4.0,39,0.00,,OVC090,0.00,VWS V14.01,2013-03-16 19:11:00,
2013-03-16 15:16:00,26.2,4.7,29.78,NNW,335,2.2,4.0,39,0.00,,OVC090,0.00,VWS V14.01,2013-03-16 19:16:00,
2013-03-16 15:21:00,26.6,5.6,29.78,WNW,299,0.0,0.0,40,0.00,,OVC090,0.00,VWS V14.01,2013-03-16 19:21:00,
2013-03-16 15:26:00,27.0,5.9,29.78,SSE,168,3.6,4.9,40,0.00,,OVC090,0.00,VWS V14.01,2013-03-16 19:26:00,
2013-03-16 15:31:00,27.5,6.4,29.78,SW,229,3.6,3.6,40,0.00,,OVC090,0.00,VWS V14.01,2013-03-16 19:31:00,
2013-03-16 15:36:00,27.3,5.1,29.78,South,174,3.1,5.8,38,0.00,,OVC090,0.00,VWS V14.01,2013-03-16 19:36:00,
2013-03-16 15:41:00,27.3,5.1,29.78,North,357,0.0,0.0,38,0.00,,OVC090,0.00,VWS V14.01,2013-03-16 19:41:00,
2013-03-16 15:46:00,27.3,5.1,29.78,SSE,151,4.9,6.3,38,0.00,,OVC090,0.00,VWS V14.01,2013-03-16 19:46:00,
2013-03-16 15:51:00,27.3,5.1,29.78,SSW,211,0.0,0.0,38,0.00,,OVC090,0.00,VWS V14.01,2013-03-16 19:51:00,
2013-03-16 15:56:00,27.0,4.8,29.78,SW,223,0.0,0.0,38,0.00,,OVC090,0.00,VWS V14.01,2013-03-16 19:56:00,
2013-03-16 16:01:00,27.3,5.1,29.78,SSE,165,2.7,2.7,38,0.00,,OVC090,0.00,VWS V14.01,2013-03-16 20:01:00,
2013-03-16 16:06:00,27.5,5.2,29.78,South,171,3.1,3.6,38,0.00,,OVC090,0.00,VWS V14.01,2013-03-16 20:06:00,
2013-03-16 16:11:00,27.3,5.1,29.78,NNE,22,2.7,3.1,38,0.00,,OVC090,0.00,VWS V14.01,2013-03-16 20:11:00,
2013-03-16 16:16:00,27.0,4.8,29.78,SW,220,0.0,0.0,38,0.00,,OVC090,0.00,VWS V14.01,2013-03-16 20:16:00,
2013-03-16 16:21:00,26.8,4.6,29.78,WSW,243,0.0,2.7,38,0.00,,OVC090,0.00,VWS V14.01,2013-03-16 20:21:00,
2013-03-16 16:26:00,26.4,4.3,29.78,SW,234,0.0,0.0,38,0.00,,OVC090,0.00,VWS V14.01,2013-03-16 20:26:00,
2013-03-16 16:31:00,26.4,4.3,29.78,South,191,2.7,2.7,38,0.00,,OVC090,0.00,VWS V14.01,2013-03-16 20:31:00,
2013-03-16 16:36:00,26.2,4.1,29.78,SSE,150,3.1,5.4,38,0.00,,OVC090,0.00,VWS V14.01,2013-03-16 20:36:00,
2013-03-16 16:41:00,26.1,3.9,29.78,SSE,158,2.7,3.6,38,0.00,,BKN090,0.00,VWS V14.01,2013-03-16 20:41:00,
2013-03-16 16:46:00,25.7,3.6,29.78,SSE,163,2.7,2.7,38,0.00,,BKN090,0.00,VWS V14.01,2013-03-16 20:46:00,
2013-03-16 16:51:00,25.5,3.5,29.78,WSW,244,0.0,0.0,38,0.00,,BKN090,0.00,VWS V14.01,2013-03-16 20:51:00,
2013-03-16 16:56:00,25.2,3.1,29.78,NNW,345,0.0,0.0,38,0.00,,BKN090,0.00,VWS V14.01,2013-03-16 20:56:00,
2013-03-16 17:01:00,25.0,3.5,29.78,South,183,4.9,6.3,39,0.00,,BKN090,0.00,VWS V14.01,2013-03-16 21:01:00,
2013-03-16 17:06:00,25.0,3.5,29.78,SW,227,0.0,0.0,39,0.00,,BKN090,0.00,VWS V14.01,2013-03-16 21:06:00,
2013-03-16 17:12:00,24.8,3.9,29.78,South,186,3.6,3.6,40,0.00,,BKN090,0.00,VWS V14.01,2013-03-16 21:12:00,
2013-03-16 17:17:00,24.6,3.8,29.78,SW,235,0.0,0.0,40,0.00,,BKN090,0.00,VWS V14.01,2013-03-16 21:17:00,
2013-03-16 17:22:00,24.4,3.6,29.78,SSW,206,2.7,3.6,40,0.00,,BKN090,0.00,VWS V14.01,2013-03-16 21:22:00,
2013-03-16 17:27:00,24.3,3.4,29.78,SSW,212,0.0,0.0,40,0.00,,BKN090,0.00,VWS V14.01,2013-03-16 21:27:00,
2013-03-16 17:32:00,24.3,4.0,29.78,SSW,204,0.0,0.0,41,0.00,,BKN090,0.00,VWS V14.01,2013-03-16 21:32:00,
2013-03-16 17:37:00,24.3,4.0,29.78,South,188,0.0,0.0,41,0.00,,BKN090,0.00,VWS V14.01,2013-03-16 21:37:00,
2013-03-16 17:42:00,24.3,4.5,29.78,SW,220,0.0,0.0,42,0.00,,OVC085,0.00,VWS V14.01,2013-03-16 21:42:00,
2013-03-16 17:47:00,23.9,4.2,29.78,North,357,0.0,0.0,42,0.00,,OVC085,0.00,VWS V14.01,2013-03-16 21:47:00,
2013-03-16 17:52:00,23.7,4.0,29.78,SW,231,0.0,0.0,42,0.00,,OVC085,0.00,VWS V14.01,2013-03-16 21:52:00,
2013-03-16 17:57:00,23.7,4.0,29.78,SSW,192,0.0,0.0,42,0.00,,OVC085,0.00,VWS V14.01,2013-03-16 21:57:00,
2013-03-16 18:02:00,23.7,4.0,29.78,NNW,329,0.0,0.0,42,0.00,,OVC085,0.00,VWS V14.01,2013-03-16 22:02:00,
2013-03-16 18:07:00,23.5,3.8,29.78,WSW,253,0.0,0.0,42,0.00,,OVC085,0.00,VWS V14.01,2013-03-16 22:07:00,
2013-03-16 18:12:00,23.4,3.7,29.78,South,169,0.0,0.0,42,0.00,,OVC085,0.00,VWS V14.01,2013-03-16 22:12:00,
2013-03-16 18:17:00,23.4,3.7,29.78,SSE,155,3.6,4.0,42,0.00,,OVC085,0.00,VWS V14.01,2013-03-16 22:17:00,
2013-03-16 18:22:00,23.2,3.5,29.78,WSW,237,0.0,0.0,42,0.00,,OVC085,0.00,VWS V14.01,2013-03-16 22:22:00,
2013-03-16 18:27:00,23.0,3.8,29.78,SSE,164,0.0,0.0,43,0.00,,OVC085,0.00,VWS V14.01,2013-03-16 22:27:00,
2013-03-16 18:32:00,22.8,3.7,29.78,South,184,0.0,0.0,43,0.00,,OVC085,0.00,VWS V14.01,2013-03-16 22:32:00,
2013-03-16 18:37:00,22.8,3.7,29.78,SW,236,0.0,0.0,43,0.00,,OVC085,0.00,VWS V14.01,2013-03-16 22:37:00,
2013-03-16 18:42:00,22.8,3.7,29.78,SW,233,0.0,0.0,43,0.00,,OVC110,0.00,VWS V14.01,2013-03-16 22:42:00,
2013-03-16 18:47:00,22.6,3.5,29.78,WSW,241,2.7,3.6,43,0.00,,OVC110,0.00,VWS V14.01,2013-03-16 22:47:00,
2013-03-16 18:52:00,22.5,3.4,29.78,WSW,241,0.0,0.0,43,0.00,,OVC110,0.00,VWS V14.01,2013-03-16 22:52:00,
2013-03-16 18:57:00,22.3,3.2,29.78,WSW,241,0.0,0.0,43,0.00,,OVC110,0.00,VWS V14.01,2013-03-16 22:57:00,
2013-03-16 19:02:00,22.1,3.0,29.81,SW,229,0.0,0.0,43,0.00,,OVC110,0.00,VWS V14.01,2013-03-16 23:02:00,
2013-03-16 19:07:00,21.9,2.9,29.81,WSW,242,3.1,4.9,43,0.00,,OVC110,0.00,VWS V14.01,2013-03-16 23:07:00,
2013-03-16 19:12:00,21.7,2.2,29.81,West,275,4.0,4.5,42,0.00,,OVC110,0.00,VWS V14.01,2013-03-16 23:12:00,
2013-03-16 19:17:00,21.6,2.0,29.81,WSW,241,0.0,0.0,42,0.00,,OVC110,0.00,VWS V14.01,2013-03-16 23:17:00,
2013-03-16 19:23:00,21.4,1.9,29.81,SW,223,0.0,0.0,42,0.00,,OVC110,0.00,VWS V14.01,2013-03-16 23:23:00,
2013-03-16 19:28:00,21.2,2.2,29.81,WSW,254,0.0,0.0,43,0.00,,OVC110,0.00,VWS V14.01,2013-03-16 23:28:00,
2013-03-16 19:33:00,21.0,2.0,29.81,NW,310,0.0,0.0,43,0.00,,OVC110,0.00,VWS V14.01,2013-03-16 23:33:00,
2013-03-16 19:38:00,20.7,1.7,29.81,NW,310,0.0,0.0,43,0.00,,OVC110,0.00,VWS V14.01,2013-03-16 23:38:00,
2013-03-16 19:43:00,20.5,1.5,29.81,NW,309,0.0,0.0,43,0.00,,OVC100,0.00,VWS V14.01,2013-03-16 23:43:00,
2013-03-16 19:48:00,20.3,1.4,29.81,NW,310,0.0,0.0,43,0.00,,OVC100,0.00,VWS V14.01,2013-03-16 23:48:00,
2013-03-16 19:53:00,20.1,1.2,29.81,NW,305,0.0,0.0,43,0.00,,OVC100,0.00,VWS V14.01,2013-03-16 23:53:00,
2013-03-16 19:58:00,19.9,1.1,29.81,NW,305,0.0,0.0,43,0.00,,OVC100,0.00,VWS V14.01,2013-03-16 23:58:00,
2013-03-16 20:03:00,19.8,0.9,29.81,North,353,0.0,0.0,43,0.00,,OVC100,0.00,VWS V14.01,2013-03-17 00:03:00,
2013-03-16 20:08:00,19.4,0.6,29.81,North,353,0.0,0.0,43,0.00,,OVC100,0.00,VWS V14.01,2013-03-17 00:08:00,
2013-03-16 20:13:00,19.0,0.2,29.81,NW,323,0.0,0.0,43,0.00,,BKN100,0.00,VWS V14.01,2013-03-17 00:13:00,
2013-03-16 20:18:00,18.5,-0.3,29.81,NW,323,0.0,0.0,43,0.00,,BKN100,0.00,VWS V14.01,2013-03-17 00:18:00,
2013-03-16 20:23:00,18.1,-0.1,29.81,NW,323,0.0,0.0,44,0.00,,BKN100,0.00,VWS V14.01,2013-03-17 00:23:00,
2013-03-16 20:28:00,17.6,-0.6,29.81,NW,323,0.0,0.0,44,0.00,,BKN100,0.00,VWS V14.01,2013-03-17 00:28:00,
2013-03-16 20:33:00,17.1,-1.1,29.84,NW,323,0.0,0.0,44,0.00,,BKN100,0.00,VWS V14.01,2013-03-17 00:33:00,
2013-03-16 20:38:00,16.5,-1.6,29.84,NNW,328,0.0,0.0,44,0.00,,BKN100,0.00,VWS V14.01,2013-03-17 00:38:00,
2013-03-16 20:43:00,16.0,-2.1,29.84,NNW,331,0.0,0.0,44,0.00,,BKN100,0.00,VWS V14.01,2013-03-17 00:43:00,
2013-03-16 20:48:00,15.6,-1.9,29.84,NNW,331,0.0,0.0,45,0.00,,BKN100,0.00,VWS V14.01,2013-03-17 00:48:00,
2013-03-16 20:53:00,15.3,-2.3,29.84,NNW,331,0.0,0.0,45,0.00,,BKN100,0.00,VWS V14.01,2013-03-17 00:53:00,
2013-03-16 20:58:00,15.1,-2.4,29.84,NNW,336,0.0,0.0,45,0.00,,BKN100,0.00,VWS V14.01,2013-03-17 00:58:00,
2013-03-16 21:03:00,14.9,-2.6,29.84,NNW,336,0.0,0.0,45,0.00,,BKN100,0.00,VWS V14.01,2013-03-17 01:03:00,
2013-03-16 21:09:00,14.4,-3.1,29.84,NNW,336,0.0,0.0,45,0.00,,BKN100,0.00,VWS V14.01,2013-03-17 01:09:00,
2013-03-16 21:14:00,13.8,-3.1,29.84,NNW,336,0.0,0.0,46,0.00,,BKN100,0.00,VWS V14.01,2013-03-17 01:14:00,
2013-03-16 21:19:00,13.5,-3.5,29.84,NNW,336,0.0,0.0,46,0.00,,BKN100,0.00,VWS V14.01,2013-03-17 01:19:00,
2013-03-16 21:24:00,13.1,-3.8,29.84,NNW,336,0.0,0.0,46,0.00,,BKN100,0.00,VWS V14.01,2013-03-17 01:24:00,
2013-03-16 21:29:00,12.7,-4.1,29.84,NNW,336,0.0,0.0,46,0.00,,BKN100,0.00,VWS V14.01,2013-03-17 01:29:00,
2013-03-16 21:34:00,12.2,-4.6,29.84,NNW,336,0.0,0.0,46,0.00,,BKN100,0.00,VWS V14.01,2013-03-17 01:34:00,
2013-03-16 21:39:00,11.8,-4.9,29.84,NNW,336,0.0,0.0,46,0.00,,BKN100,0.00,VWS V14.01,2013-03-17 01:39:00,
2013-03-16 21:44:00,11.7,-5.1,29.84,NNW,336,0.0,0.0,46,0.00,,CLR,0.00,VWS V14.01,2013-03-17 01:44:00,
2013-03-16 21:49:00,11.3,-5.4,29.87,NNW,336,0.0,0.0,46,0.00,,CLR,0.00,VWS V14.01,2013-03-17 01:49:00,
2013-03-16 21:54:00,10.9,-5.8,29.87,NNW,336,0.0,0.0,46,0.00,,CLR,0.00,VWS V14.01,2013-03-17 01:54:00,
2013-03-16 21:59:00,10.8,-5.9,29.87,NNW,336,0.0,0.0,46,0.00,,CLR,0.00,VWS V14.01,2013-03-17 01:59:00,
2013-03-16 22:04:00,10.4,-6.3,29.87,NNW,336,0.0,0.0,46,0.00,,CLR,0.00,VWS V14.01,2013-03-17 02:04:00,
2013-03-16 22:09:00,10.2,-6.4,29.87,NNW,336,0.0,0.0,46,0.00,,CLR,0.00,VWS V14.01,2013-03-17 02:09:00,
2013-03-16 22:14:00,9.9,-6.8,29.87,NNW,336,0.0,0.0,46,0.00,,CLR,0.00,VWS V14.01,2013-03-17 02:14:00,
2013-03-16 22:19:00,9.5,-7.1,29.87,NNW,336,0.0,0.0,46,0.00,,CLR,0.00,VWS V14.01,2013-03-17 02:19:00,
2013-03-16 22:24:00,9.1,-7.4,29.87,NNW,336,0.0,0.0,46,0.00,,CLR,0.00,VWS V14.01,2013-03-17 02:24:00,
2013-03-16 22:29:00,9.0,-7.6,29.87,NNW,336,0.0,0.0,46,0.00,,CLR,0.00,VWS V14.01,2013-03-17 02:29:00,
2013-03-16 22:34:00,8.6,-7.9,29.87,NNW,335,0.0,0.0,46,0.00,,CLR,0.00,VWS V14.01,2013-03-17 02:34:00,
2013-03-16 22:39:00,8.2,-8.3,29.87,NNW,336,0.0,0.0,46,0.00,,CLR,0.00,VWS V14.01,2013-03-17 02:39:00,
2013-03-16 22:44:00,8.1,-8.4,29.87,NNW,336,0.0,0.0,46,0.00,,CLR,0.00,VWS V14.01,2013-03-17 02:44:00,
2013-03-16 22:49:00,7.7,-8.8,29.87,NNW,336,0.0,0.0,46,0.00,,CLR,0.00,VWS V14.01,2013-03-17 02:49:00,
2013-03-16 22:54:00,7.5,-8.9,29.87,NNW,336,0.0,0.0,46,0.00,,CLR,0.00,VWS V14.01,2013-03-17 02:54:00,
2013-03-16 22:59:00,7.2,-9.3,29.87,NNW,336,0.0,0.0,46,0.00,,CLR,0.00,VWS V14.01,2013-03-17 02:59:00,
2013-03-16 23:04:00,7.0,-9.4,29.87,NNW,336,0.0,0.0,46,0.00,,CLR,0.00,VWS V14.01,2013-03-17 03:04:00,
2013-03-16 23:09:00,6.8,-9.6,29.87,NNW,336,0.0,0.0,46,0.00,,CLR,0.00,VWS V14.01,2013-03-17 03:09:00,
2013-03-16 23:14:00,6.4,-9.9,29.87,NNW,336,0.0,0.0,46,0.00,,CLR,0.00,VWS V14.01,2013-03-17 03:14:00,
2013-03-16 23:19:00,6.3,-10.1,29.87,NNW,336,0.0,0.0,46,0.00,,CLR,0.00,VWS V14.01,2013-03-17 03:19:00,
2013-03-16 23:24:00,6.1,-10.2,29.87,NNW,336,0.0,0.0,46,0.00,,CLR,0.00,VWS V14.01,2013-03-17 03:24:00,
2013-03-16 23:29:00,5.9,-10.4,29.90,NNW,336,0.0,0.0,46,0.00,,CLR,0.00,VWS V14.01,2013-03-17 03:29:00,
2013-03-16 23:34:00,5.5,-10.8,29.90,NNW,336,0.0,0.0,46,0.00,,CLR,0.00,VWS V14.01,2013-03-17 03:34:00,
2013-03-16 23:39:00,5.4,-10.9,29.90,NNW,336,0.0,0.0,46,0.00,,CLR,0.00,VWS V14.01,2013-03-17 03:39:00,
2013-03-16 23:44:00,5.2,-11.1,29.87,NNW,336,0.0,0.0,46,0.00,,CLR,0.00,VWS V14.01,2013-03-17 03:44:00,
2013-03-16 23:49:00,5.0,-11.2,29.87,NNW,336,0.0,0.0,46,0.00,,CLR,0.00,VWS V14.01,2013-03-17 03:49:00,
2013-03-16 23:54:00,4.6,-11.6,29.87,NNW,335,0.0,0.0,46,0.00,,CLR,0.00,VWS V14.01,2013-03-17 03:54:00,
2013-03-16 23:59:00,4.5,-11.7,29.87,NNW,336,0.0,0.0,46,0.00,,CLR,0.00,VWS V14.01,2013-03-17 03:59:00,